PRIVATE WETTERSTATION BILLIGHEIM-ALLFELD                       ZURCK
Wetterdaten: Sonntag, 05.10.2014
Datum Zeit Temp. A. Temp. A. min Temp. A. max Feuchte A. Luftdruck Regen Wind Richtung Richtung Sonnenschein ET Solar Taupunkt Windchill Windben Empfang
05.10.2014 00:00 8,7 C 8,7 C 8,8 C 90 % 1015,9 hPa 0,0 l/m 0,0 km/h (0 Bft) N 360 0 min 0,000 mm 0 W/m 7,2 C 8,7 C 3,2 km/h (1 Bft) 98 %
05.10.2014 00:10 8,7 C 8,7 C 8,7 C 94 % 1015,8 hPa 0,0 l/m 0,0 km/h (0 Bft) N 360 0 min 0,000 mm 0 W/m 7,8 C 8,7 C 1,6 km/h (1 Bft) 97 %
05.10.2014 00:20 8,6 C 8,6 C 8,7 C 90 % 1015,8 hPa 0,0 l/m 0,0 km/h (0 Bft) N 360 0 min 0,000 mm 0 W/m 7,1 C 8,6 C 3,2 km/h (1 Bft) 97 %
05.10.2014 00:30 8,5 C 8,5 C 8,6 C 90 % 1015,9 hPa 0,0 l/m 0,0 km/h (0 Bft) N 360 0 min 0,000 mm 0 W/m 7,0 C 8,5 C 1,6 km/h (1 Bft) 98 %
05.10.2014 00:40 8,3 C 8,3 C 8,5 C 90 % 1015,9 hPa 0,0 l/m 0,0 km/h (0 Bft) N 360 0 min 0,000 mm 0 W/m 6,8 C 8,3 C 1,6 km/h (1 Bft) 97 %
05.10.2014 00:50 8,3 C 8,3 C 8,4 C 90 % 1015,8 hPa 0,0 l/m 0,0 km/h (0 Bft) N 360 0 min 0,000 mm 0 W/m 6,8 C 8,3 C 1,6 km/h (1 Bft) 98 %
05.10.2014 01:00 8,3 C 8,2 C 8,3 C 90 % 1015,7 hPa 0,0 l/m 0,0 km/h (0 Bft) N 360 0 min 0,000 mm 0 W/m 6,8 C 8,3 C 1,6 km/h (1 Bft) 97 %
05.10.2014 01:10 8,2 C 8,2 C 8,3 C 90 % 1015,8 hPa 0,0 l/m 0,0 km/h (0 Bft) N 360 0 min 0,000 mm 0 W/m 6,7 C 8,2 C 1,6 km/h (1 Bft) 98 %
05.10.2014 01:20 8,1 C 8,1 C 8,2 C 90 % 1015,8 hPa 0,0 l/m 0,0 km/h (0 Bft) N 360 0 min 0,000 mm 0 W/m 6,6 C 8,1 C 3,2 km/h (1 Bft) 98 %
05.10.2014 01:30 7,9 C 7,9 C 8,1 C 90 % 1015,8 hPa 0,0 l/m 0,0 km/h (0 Bft) N 360 0 min 0,000 mm 0 W/m 6,4 C 7,9 C 1,6 km/h (1 Bft) 97 %
05.10.2014 01:40 7,8 C 7,8 C 7,9 C 90 % 1015,8 hPa 0,0 l/m 0,0 km/h (0 Bft) N 360 0 min 0,000 mm 0 W/m 6,3 C 7,8 C 3,2 km/h (1 Bft) 98 %
05.10.2014 01:50 7,7 C 7,7 C 7,8 C 91 % 1015,9 hPa 0,0 l/m 0,0 km/h (0 Bft) N 360 0 min 0,000 mm 0 W/m 6,3 C 7,7 C 1,6 km/h (1 Bft) 88 %
05.10.2014 02:00 7,6 C 7,6 C 7,7 C 91 % 1015,8 hPa 0,0 l/m 0,0 km/h (0 Bft) N-NW 337 0 min 0,000 mm 0 W/m 6,2 C 7,6 C 4,8 km/h (1 Bft) 98 %
05.10.2014 02:10 7,4 C 7,4 C 7,6 C 90 % 1015,9 hPa 0,0 l/m 0,0 km/h (0 Bft) N 0 0 min 0,000 mm 0 W/m 5,9 C 7,4 C 0,0 km/h (0 Bft) 96 %
05.10.2014 02:20 7,4 C 7,4 C 7,4 C 91 % 1015,8 hPa 0,0 l/m 0,0 km/h (0 Bft) N-NW 337 0 min 0,000 mm 0 W/m 6,0 C 7,4 C 3,2 km/h (1 Bft) 98 %
05.10.2014 02:30 7,4 C 7,4 C 7,4 C 91 % 1015,9 hPa 0,0 l/m 0,0 km/h (0 Bft) N-NW 337 0 min 0,000 mm 0 W/m 6,0 C 7,4 C 3,2 km/h (1 Bft) 97 %
05.10.2014 02:40 7,4 C 7,4 C 7,4 C 91 % 1015,8 hPa 0,0 l/m 0,0 km/h (0 Bft) N-NW 337 0 min 0,000 mm 0 W/m 6,0 C 7,4 C 1,6 km/h (1 Bft) 98 %
05.10.2014 02:50 7,3 C 7,3 C 7,4 C 91 % 1015,8 hPa 0,0 l/m 0,0 km/h (0 Bft) N-NW 337 0 min 0,000 mm 0 W/m 5,9 C 7,3 C 1,6 km/h (1 Bft) 100 %
05.10.2014 03:00 7,3 C 7,3 C 7,3 C 91 % 1015,9 hPa 0,0 l/m 0,0 km/h (0 Bft) N-NW 337 0 min 0,000 mm 0 W/m 5,9 C 7,3 C 1,6 km/h (1 Bft) 99 %
05.10.2014 03:10 7,3 C 7,3 C 7,3 C 91 % 1015,9 hPa 0,0 l/m 0,0 km/h (0 Bft) N 0 0 min 0,000 mm 0 W/m 5,9 C 7,3 C 0,0 km/h (0 Bft) 100 %
05.10.2014 03:20 7,3 C 7,3 C 7,3 C 91 % 1015,8 hPa 0,0 l/m 0,0 km/h (0 Bft) N-NW 337 0 min 0,000 mm 0 W/m 5,9 C 7,3 C 1,6 km/h (1 Bft) 99 %
05.10.2014 03:30 7,3 C 7,3 C 7,3 C 91 % 1015,8 hPa 0,0 l/m 0,0 km/h (0 Bft) N-NW 337 0 min 0,000 mm 0 W/m 5,9 C 7,3 C 3,2 km/h (1 Bft) 100 %
05.10.2014 03:40 7,3 C 7,3 C 7,3 C 91 % 1015,7 hPa 0,0 l/m 0,0 km/h (0 Bft) N-NW 337 0 min 0,000 mm 0 W/m 5,9 C 7,3 C 1,6 km/h (1 Bft) 99 %
05.10.2014 03:50 7,3 C 7,3 C 7,3 C 91 % 1015,7 hPa 0,0 l/m 0,0 km/h (0 Bft) N-NW 337 0 min 0,000 mm 0 W/m 5,9 C 7,3 C 3,2 km/h (1 Bft) 100 %
05.10.2014 04:00 7,2 C 7,2 C 7,3 C 90 % 1015,6 hPa 0,0 l/m 0,0 km/h (0 Bft) N-NW 337 0 min 0,000 mm 0 W/m 5,7 C 7,2 C 3,2 km/h (1 Bft) 100 %
05.10.2014 04:10 7,1 C 7,1 C 7,2 C 90 % 1015,6 hPa 0,0 l/m 0,0 km/h (0 Bft) N-NW 337 0 min 0,000 mm 0 W/m 5,6 C 7,1 C 1,6 km/h (1 Bft) 86 %
05.10.2014 04:20 7,1 C 7,1 C 7,1 C 90 % 1015,7 hPa 0,0 l/m 0,0 km/h (0 Bft) N 0 0 min 0,000 mm 0 W/m 5,6 C 7,1 C 0,0 km/h (0 Bft) 100 %
05.10.2014 04:30 7,0 C 7,0 C 7,1 C 91 % 1015,7 hPa 0,0 l/m 0,0 km/h (0 Bft) N-NW 337 0 min 0,000 mm 0 W/m 5,6 C 7,0 C 1,6 km/h (1 Bft) 99 %
05.10.2014 04:40 7,0 C 7,0 C 7,0 C 91 % 1015,6 hPa 0,0 l/m 0,0 km/h (0 Bft) N-NW 337 0 min 0,000 mm 0 W/m 5,6 C 7,0 C 1,6 km/h (1 Bft) 100 %
05.10.2014 04:50 7,0 C 6,9 C 7,0 C 91 % 1015,5 hPa 0,0 l/m 0,0 km/h (0 Bft) N 0 0 min 0,000 mm 0 W/m 5,6 C 7,0 C 0,0 km/h (0 Bft) 100 %
05.10.2014 05:00 6,9 C 6,9 C 7,0 C 91 % 1015,5 hPa 0,0 l/m 0,0 km/h (0 Bft) N-NW 337 0 min 0,000 mm 0 W/m 5,5 C 6,9 C 1,6 km/h (1 Bft) 100 %
05.10.2014 05:10 7,1 C 6,9 C 7,1 C 90 % 1015,5 hPa 0,0 l/m 0,0 km/h (0 Bft) N 0 0 min 0,000 mm 0 W/m 5,6 C 7,1 C 0,0 km/h (0 Bft) 100 %
05.10.2014 05:20 7,1 C 7,1 C 7,1 C 90 % 1015,6 hPa 0,0 l/m 0,0 km/h (0 Bft) N-NW 337 0 min 0,000 mm 0 W/m 5,6 C 7,1 C 1,6 km/h (1 Bft) 100 %
05.10.2014 05:30 7,1 C 7,1 C 7,1 C 90 % 1015,5 hPa 0,0 l/m 0,0 km/h (0 Bft) N 0 0 min 0,000 mm 0 W/m 5,6 C 7,1 C 0,0 km/h (0 Bft) 100 %
05.10.2014 05:40 7,3 C 7,1 C 7,3 C 90 % 1015,5 hPa 0,0 l/m 0,0 km/h (0 Bft) N 0 0 min 0,000 mm 0 W/m 5,8 C 7,3 C 0,0 km/h (0 Bft) 100 %
05.10.2014 05:50 7,4 C 7,3 C 7,4 C 90 % 1015,5 hPa 0,0 l/m 0,0 km/h (0 Bft) N 0 0 min 0,000 mm 0 W/m 5,9 C 7,4 C 0,0 km/h (0 Bft) 100 %
05.10.2014 06:00 7,4 C 7,4 C 7,4 C 90 % 1015,5 hPa 0,0 l/m 0,0 km/h (0 Bft) N-NW 337 0 min 0,000 mm 0 W/m 5,9 C 7,4 C 3,2 km/h (1 Bft) 100 %
05.10.2014 06:10 7,3 C 7,3 C 7,4 C 90 % 1015,5 hPa 0,0 l/m 0,0 km/h (0 Bft) N 0 0 min 0,000 mm 0 W/m 5,8 C 7,3 C 0,0 km/h (0 Bft) 100 %
05.10.2014 06:20 7,2 C 7,2 C 7,3 C 91 % 1015,5 hPa 0,0 l/m 0,0 km/h (0 Bft) N 0 0 min 0,000 mm 0 W/m 5,8 C 7,2 C 0,0 km/h (0 Bft) 100 %
05.10.2014 06:30 7,1 C 7,1 C 7,2 C 90 % 1015,5 hPa 0,0 l/m 0,0 km/h (0 Bft) N 0 0 min 0,000 mm 0 W/m 5,6 C 7,1 C 0,0 km/h (0 Bft) 100 %
05.10.2014 06:40 7,1 C 7,1 C 7,1 C 90 % 1015,6 hPa 0,0 l/m 0,0 km/h (0 Bft) N-NW 337 0 min 0,000 mm 0 W/m 5,6 C 7,1 C 1,6 km/h (1 Bft) 100 %
05.10.2014 06:50 7,1 C 7,1 C 7,1 C 90 % 1015,7 hPa 0,0 l/m 0,0 km/h (0 Bft) N 0 0 min 0,000 mm 0 W/m 5,6 C 7,1 C 0,0 km/h (0 Bft) 100 %
05.10.2014 07:00 7,1 C 7,1 C 7,1 C 90 % 1015,6 hPa 0,0 l/m 0,0 km/h (0 Bft) N-NW 337 0 min 0,000 mm 0 W/m 5,6 C 7,1 C 1,6 km/h (1 Bft) 100 %
05.10.2014 07:10 7,3 C 7,1 C 7,3 C 90 % 1015,7 hPa 0,0 l/m 0,0 km/h (0 Bft) N-NW 337 0 min 0,000 mm 0 W/m 5,8 C 7,3 C 1,6 km/h (1 Bft) 100 %
05.10.2014 07:20 7,4 C 7,3 C 7,4 C 90 % 1015,7 hPa 0,0 l/m 0,0 km/h (0 Bft) N 0 0 min 0,000 mm 0 W/m 5,9 C 7,4 C 0,0 km/h (0 Bft) 100 %
05.10.2014 07:30 7,7 C 7,4 C 7,7 C 90 % 1015,7 hPa 0,0 l/m 0,0 km/h (0 Bft) N 0 0 min 0,000 mm 0 W/m 6,2 C 7,7 C 0,0 km/h (0 Bft) 100 %
05.10.2014 07:40 7,9 C 7,7 C 7,9 C 90 % 1015,9 hPa 0,0 l/m 0,0 km/h (0 Bft) N-NW 337 0 min 0,000 mm 5 W/m 6,4 C 7,9 C 1,6 km/h (1 Bft) 100 %
05.10.2014 07:50 8,1 C 7,9 C 8,1 C 90 % 1015,8 hPa 0,0 l/m 0,0 km/h (0 Bft) N 0 0 min 0,000 mm 11 W/m 6,6 C 8,1 C 0,0 km/h (0 Bft) 100 %
05.10.2014 08:00 8,2 C 8,1 C 8,2 C 90 % 1015,8 hPa 0,0 l/m 0,0 km/h (0 Bft) N-NW 337 0 min 0,000 mm 16 W/m 6,7 C 8,2 C 1,6 km/h (1 Bft) 100 %
05.10.2014 08:10 8,3 C 8,2 C 8,3 C 90 % 1015,9 hPa 0,0 l/m 0,0 km/h (0 Bft) N-NW 337 0 min 0,000 mm 23 W/m 6,8 C 8,3 C 1,6 km/h (1 Bft) 99 %
05.10.2014 08:20 8,4 C 8,3 C 8,4 C 90 % 1015,9 hPa 0,0 l/m 0,0 km/h (0 Bft) N-NW 337 0 min 0,000 mm 26 W/m 6,9 C 8,4 C 3,2 km/h (1 Bft) 100 %
05.10.2014 08:30 8,4 C 8,4 C 8,4 C 90 % 1016,1 hPa 0,0 l/m 0,0 km/h (0 Bft) N-NW 337 0 min 0,000 mm 33 W/m 6,9 C 8,4 C 1,6 km/h (1 Bft) 100 %
05.10.2014 08:40 8,6 C 8,4 C 8,6 C 90 % 1016,1 hPa 0,0 l/m 0,0 km/h (0 Bft) W 270 0 min 0,000 mm 62 W/m 7,1 C 8,6 C 3,2 km/h (1 Bft) 100 %
05.10.2014 08:50 8,7 C 8,6 C 8,7 C 90 % 1016,1 hPa 0,0 l/m 0,0 km/h (0 Bft) SW 225 0 min 0,000 mm 60 W/m 7,2 C 8,7 C 1,6 km/h (1 Bft) 100 %
05.10.2014 09:00 8,7 C 8,7 C 8,7 C 90 % 1016,1 hPa 0,0 l/m 0,0 km/h (0 Bft) SW 225 0 min 0,025 mm 44 W/m 7,2 C 8,7 C 1,6 km/h (1 Bft) 100 %
05.10.2014 09:10 8,8 C 8,7 C 8,8 C 90 % 1016,2 hPa 0,0 l/m 0,0 km/h (0 Bft) SW 225 0 min 0,000 mm 67 W/m 7,3 C 8,8 C 3,2 km/h (1 Bft) 100 %
05.10.2014 09:20 8,9 C 8,8 C 8,9 C 90 % 1016,2 hPa 0,0 l/m 0,0 km/h (0 Bft) SW 225 0 min 0,000 mm 127 W/m 7,4 C 8,9 C 1,6 km/h (1 Bft) 100 %
05.10.2014 09:30 9,1 C 8,9 C 9,1 C 90 % 1016,2 hPa 0,0 l/m 0,0 km/h (0 Bft) SW 225 0 min 0,000 mm 123 W/m 7,5 C 9,1 C 3,2 km/h (1 Bft) 100 %
05.10.2014 09:40 9,3 C 9,1 C 9,3 C 90 % 1016,3 hPa 0,0 l/m 0,0 km/h (0 Bft) SW 225 0 min 0,000 mm 114 W/m 7,7 C 9,3 C 1,6 km/h (1 Bft) 100 %
05.10.2014 09:50 9,4 C 9,3 C 9,4 C 90 % 1016,2 hPa 0,0 l/m 0,0 km/h (0 Bft) SW 225 0 min 0,000 mm 111 W/m 7,8 C 9,4 C 1,6 km/h (1 Bft) 100 %
05.10.2014 10:00 9,5 C 9,4 C 9,5 C 90 % 1016,4 hPa 0,0 l/m 0,0 km/h (0 Bft) SW 225 0 min 0,051 mm 116 W/m 7,9 C 9,5 C 1,6 km/h (1 Bft) 100 %
05.10.2014 10:10 9,6 C 9,5 C 9,6 C 90 % 1016,5 hPa 0,0 l/m 0,0 km/h (0 Bft) SW 225 0 min 0,000 mm 121 W/m 8,0 C 9,6 C 3,2 km/h (1 Bft) 100 %
05.10.2014 10:20 9,8 C 9,6 C 9,8 C 90 % 1016,5 hPa 0,0 l/m 0,0 km/h (0 Bft) SW 225 0 min 0,000 mm 118 W/m 8,2 C 9,8 C 3,2 km/h (1 Bft) 100 %
05.10.2014 10:30 9,9 C 9,8 C 9,9 C 90 % 1016,5 hPa 0,0 l/m 0,0 km/h (0 Bft) SW 225 0 min 0,000 mm 139 W/m 8,3 C 9,9 C 3,2 km/h (1 Bft) 100 %
05.10.2014 10:40 10,1 C 9,9 C 10,1 C 90 % 1016,6 hPa 0,0 l/m 0,0 km/h (0 Bft) SW 225 0 min 0,000 mm 151 W/m 8,5 C 10,1 C 1,6 km/h (1 Bft) 100 %
05.10.2014 10:50 10,3 C 10,1 C 10,3 C 90 % 1016,6 hPa 0,0 l/m 0,0 km/h (0 Bft) SW 225 0 min 0,000 mm 142 W/m 8,7 C 10,3 C 1,6 km/h (1 Bft) 100 %
05.10.2014 11:00 10,4 C 10,3 C 10,4 C 90 % 1016,5 hPa 0,0 l/m 0,0 km/h (0 Bft) SW 225 0 min 0,051 mm 137 W/m 8,8 C 10,4 C 1,6 km/h (1 Bft) 100 %
05.10.2014 11:10 10,4 C 10,4 C 10,5 C 90 % 1016,5 hPa 0,0 l/m 0,0 km/h (0 Bft) SW 225 0 min 0,000 mm 142 W/m 8,8 C 10,4 C 3,2 km/h (1 Bft) 100 %
05.10.2014 11:20 10,7 C 10,4 C 10,7 C 90 % 1016,5 hPa 0,0 l/m 0,0 km/h (0 Bft) S 180 0 min 0,000 mm 151 W/m 9,1 C 10,7 C 1,6 km/h (1 Bft) 100 %
05.10.2014 11:30 10,9 C 10,7 C 10,9 C 90 % 1016,5 hPa 0,0 l/m 0,0 km/h (0 Bft) W-SW 247 10 min 0,000 mm 155 W/m 9,3 C 10,9 C 3,2 km/h (1 Bft) 100 %
05.10.2014 11:40 11,0 C 10,9 C 11,0 C 90 % 1016,4 hPa 0,0 l/m 0,0 km/h (0 Bft) W-SW 247 10 min 0,000 mm 172 W/m 9,4 C 11,0 C 4,8 km/h (1 Bft) 100 %
05.10.2014 11:50 11,2 C 11,0 C 11,2 C 90 % 1016,4 hPa 0,0 l/m 0,0 km/h (0 Bft) O 90 10 min 0,000 mm 172 W/m 9,6 C 11,2 C 6,4 km/h (2 Bft) 100 %
05.10.2014 12:00 11,3 C 11,2 C 11,3 C 90 % 1016,3 hPa 0,0 l/m 1,6 km/h (1 Bft) N-NO 22 10 min 0,076 mm 179 W/m 9,7 C 11,3 C 6,4 km/h (2 Bft) 100 %
05.10.2014 12:10 11,5 C 11,3 C 11,5 C 90 % 1016,4 hPa 0,0 l/m 0,0 km/h (0 Bft) SO 135 10 min 0,000 mm 188 W/m 9,9 C 11,5 C 3,2 km/h (1 Bft) 100 %
05.10.2014 12:20 11,6 C 11,5 C 11,6 C 90 % 1016,3 hPa 0,0 l/m 0,0 km/h (0 Bft) N 360 10 min 0,000 mm 158 W/m 10,0 C 11,6 C 4,8 km/h (1 Bft) 100 %
05.10.2014 12:30 11,7 C 11,6 C 11,7 C 90 % 1016,2 hPa 0,0 l/m 0,0 km/h (0 Bft) N 360 10 min 0,000 mm 156 W/m 10,1 C 11,7 C 1,6 km/h (1 Bft) 90 %
05.10.2014 12:40 11,8 C 11,7 C 11,8 C 91 % 1016,1 hPa 0,0 l/m 0,0 km/h (0 Bft) N 360 10 min 0,000 mm 156 W/m 10,4 C 11,8 C 4,8 km/h (1 Bft) 100 %
05.10.2014 12:50 11,9 C 11,8 C 11,9 C 91 % 1016,1 hPa 0,0 l/m 0,0 km/h (0 Bft) W-NW 292 10 min 0,000 mm 162 W/m 10,5 C 11,9 C 1,6 km/h (1 Bft) 100 %
05.10.2014 13:00 12,1 C 11,8 C 12,1 C 90 % 1016,1 hPa 0,0 l/m 0,4 km/h (0 Bft) W-NW 284 10 min 0,000 mm 186 W/m 10,5 C 12,1 C 4,8 km/h (1 Bft) 97 %
05.10.2014 13:10 12,3 C 12,1 C 12,3 C 91 % 1016,1 hPa 0,0 l/m 0,3 km/h (0 Bft) W-NW 282 10 min 0,076 mm 179 W/m 10,9 C 12,3 C 6,4 km/h (2 Bft) 98 %
05.10.2014 13:20 12,4 C 12,3 C 12,4 C 91 % 1015,8 hPa 0,0 l/m 0,0 km/h (0 Bft) W-NW 282 10 min 0,000 mm 167 W/m 11,0 C 12,4 C 1,6 km/h (1 Bft) 97 %
05.10.2014 13:30 12,4 C 12,4 C 12,4 C 91 % 1015,8 hPa 0,0 l/m 0,1 km/h (0 Bft) SW 226 10 min 0,000 mm 169 W/m 11,0 C 12,4 C 1,6 km/h (1 Bft) 97 %
05.10.2014 13:40 12,7 C 12,4 C 12,7 C 91 % 1015,8 hPa 0,0 l/m 0,4 km/h (0 Bft) SO 146 0 min 0,000 mm 151 W/m 11,3 C 12,7 C 4,8 km/h (1 Bft) 98 %
05.10.2014 13:50 12,8 C 12,6 C 12,8 C 91 % 1015,8 hPa 0,0 l/m 0,5 km/h (0 Bft) W-SW 245 10 min 0,000 mm 160 W/m 11,4 C 12,8 C 4,8 km/h (1 Bft) 97 %
05.10.2014 14:00 12,9 C 12,8 C 12,9 C 91 % 1015,8 hPa 0,0 l/m 0,0 km/h (0 Bft) S-SW 194 10 min 0,077 mm 163 W/m 11,5 C 12,9 C 1,6 km/h (1 Bft) 98 %
05.10.2014 14:10 13,0 C 12,9 C 13,0 C 91 % 1015,8 hPa 0,0 l/m 0,3 km/h (0 Bft) S-SO 153 0 min 0,000 mm 146 W/m 11,6 C 13,0 C 3,2 km/h (1 Bft) 97 %
05.10.2014 14:20 13,1 C 13,0 C 13,1 C 91 % 1015,8 hPa 0,0 l/m 0,5 km/h (0 Bft) NW 310 10 min 0,000 mm 160 W/m 11,7 C 13,1 C 6,4 km/h (2 Bft) 98 %
05.10.2014 14:30 13,2 C 13,1 C 13,2 C 90 % 1015,7 hPa 0,0 l/m 0,3 km/h (0 Bft) NO 41 10 min 0,000 mm 156 W/m 11,6 C 13,2 C 3,2 km/h (1 Bft) 97 %
05.10.2014 14:40 13,4 C 13,2 C 13,4 C 90 % 1015,6 hPa 0,0 l/m 0,0 km/h (0 Bft) O-NO 59 0 min 0,000 mm 141 W/m 11,8 C 13,4 C 1,6 km/h (1 Bft) 97 %
05.10.2014 14:50 13,4 C 13,4 C 13,4 C 90 % 1015,7 hPa 0,0 l/m 0,1 km/h (0 Bft) S-SW 200 0 min 0,000 mm 132 W/m 11,8 C 13,4 C 3,2 km/h (1 Bft) 97 %
05.10.2014 15:00 13,6 C 13,4 C 13,6 C 90 % 1015,6 hPa 0,0 l/m 0,1 km/h (0 Bft) S 190 0 min 0,076 mm 113 W/m 12,0 C 13,6 C 1,6 km/h (1 Bft) 99 %
05.10.2014 15:10 13,6 C 13,6 C 13,6 C 90 % 1015,5 hPa 0,0 l/m 0,1 km/h (0 Bft) SW 227 0 min 0,000 mm 135 W/m 12,0 C 13,6 C 3,2 km/h (1 Bft) 100 %
05.10.2014 15:20 13,7 C 13,6 C 13,7 C 90 % 1015,5 hPa 0,0 l/m 0,5 km/h (0 Bft) S-SW 210 0 min 0,000 mm 116 W/m 12,1 C 13,7 C 4,8 km/h (1 Bft) 100 %
05.10.2014 15:30 13,7 C 13,7 C 13,7 C 90 % 1015,5 hPa 0,0 l/m 0,0 km/h (0 Bft) S-SW 210 0 min 0,000 mm 113 W/m 12,1 C 13,7 C 1,6 km/h (1 Bft) 100 %
05.10.2014 15:40 13,7 C 13,7 C 13,7 C 90 % 1015,6 hPa 0,0 l/m 0,1 km/h (0 Bft) S-SW 209 0 min 0,000 mm 93 W/m 12,1 C 13,7 C 1,6 km/h (1 Bft) 100 %
05.10.2014 15:50 13,8 C 13,7 C 13,8 C 89 % 1015,5 hPa 0,0 l/m 0,1 km/h (0 Bft) S-SW 209 0 min 0,000 mm 97 W/m 12,0 C 13,8 C 3,2 km/h (1 Bft) 100 %
05.10.2014 16:00 13,8 C 13,8 C 13,8 C 90 % 1015,4 hPa 0,0 l/m 0,3 km/h (0 Bft) W-SW 252 0 min 0,051 mm 97 W/m 12,2 C 13,8 C 4,8 km/h (1 Bft) 100 %
05.10.2014 16:10 13,9 C 13,8 C 13,9 C 89 % 1015,4 hPa 0,0 l/m 0,0 km/h (0 Bft) S 184 0 min 0,000 mm 97 W/m 12,1 C 13,9 C 1,6 km/h (1 Bft) 100 %
05.10.2014 16:20 13,9 C 13,8 C 13,9 C 89 % 1015,3 hPa 0,0 l/m 0,3 km/h (0 Bft) N 360 0 min 0,000 mm 93 W/m 12,1 C 13,9 C 3,2 km/h (1 Bft) 100 %
05.10.2014 16:30 13,9 C 13,9 C 13,9 C 90 % 1015,2 hPa 0,0 l/m 0,4 km/h (0 Bft) N 355 0 min 0,000 mm 84 W/m 12,3 C 13,9 C 4,8 km/h (1 Bft) 100 %
05.10.2014 16:40 13,9 C 13,9 C 14,0 C 90 % 1015,2 hPa 0,0 l/m 0,2 km/h (0 Bft) N-NW 340 0 min 0,000 mm 76 W/m 12,3 C 13,9 C 3,2 km/h (1 Bft) 99 %
05.10.2014 16:50 14,0 C 13,9 C 14,0 C 89 % 1015,1 hPa 0,0 l/m 0,4 km/h (0 Bft) N 349 0 min 0,000 mm 69 W/m 12,2 C 14,0 C 3,2 km/h (1 Bft) 100 %
05.10.2014 17:00 14,0 C 14,0 C 14,0 C 89 % 1015,1 hPa 0,0 l/m 0,0 km/h (0 Bft) N 349 0 min 0,050 mm 69 W/m 12,2 C 14,0 C 1,6 km/h (1 Bft) 100 %
05.10.2014 17:10 13,9 C 13,9 C 14,0 C 89 % 1015,2 hPa 0,0 l/m 0,2 km/h (0 Bft) W-NW 302 0 min 0,000 mm 62 W/m 12,1 C 13,9 C 4,8 km/h (1 Bft) 100 %
05.10.2014 17:20 13,9 C 13,9 C 13,9 C 89 % 1015,1 hPa 0,0 l/m 0,0 km/h (0 Bft) W-NW 302 0 min 0,000 mm 49 W/m 12,1 C 13,9 C 1,6 km/h (1 Bft) 100 %
05.10.2014 17:30 13,8 C 13,8 C 13,9 C 89 % 1015,2 hPa 0,0 l/m 0,4 km/h (0 Bft) W-NW 300 0 min 0,000 mm 44 W/m 12,0 C 13,8 C 3,2 km/h (1 Bft) 100 %
05.10.2014 17:40 13,8 C 13,8 C 13,8 C 89 % 1015,1 hPa 0,0 l/m 0,2 km/h (0 Bft) W-SW 248 0 min 0,000 mm 42 W/m 12,0 C 13,8 C 4,8 km/h (1 Bft) 100 %
05.10.2014 17:50 13,8 C 13,8 C 13,8 C 90 % 1015,2 hPa 0,0 l/m 0,2 km/h (0 Bft) W-SW 250 0 min 0,000 mm 32 W/m 12,2 C 13,8 C 4,8 km/h (1 Bft) 100 %
05.10.2014 18:00 13,8 C 13,8 C 13,8 C 90 % 1015,1 hPa 0,0 l/m 0,1 km/h (0 Bft) W-SW 250 0 min 0,026 mm 26 W/m 12,2 C 13,8 C 3,2 km/h (1 Bft) 100 %
05.10.2014 18:10 13,7 C 13,7 C 13,8 C 90 % 1015,2 hPa 0,0 l/m 0,0 km/h (0 Bft) W-SW 250 0 min 0,000 mm 19 W/m 12,1 C 13,7 C 1,6 km/h (1 Bft) 100 %
05.10.2014 18:20 13,7 C 13,7 C 13,7 C 90 % 1015,2 hPa 0,0 l/m 0,3 km/h (0 Bft) W 261 0 min 0,000 mm 12 W/m 12,1 C 13,7 C 3,2 km/h (1 Bft) 100 %
05.10.2014 18:30 13,6 C 13,6 C 13,7 C 90 % 1015,2 hPa 0,0 l/m 0,2 km/h (0 Bft) W-NW 301 0 min 0,000 mm 9 W/m 12,0 C 13,6 C 3,2 km/h (1 Bft) 100 %
05.10.2014 18:40 13,5 C 13,5 C 13,6 C 90 % 1015,1 hPa 0,0 l/m 0,1 km/h (0 Bft) W 271 0 min 0,000 mm 5 W/m 11,9 C 13,5 C 1,6 km/h (1 Bft) 100 %
05.10.2014 18:50 13,4 C 13,4 C 13,5 C 90 % 1015,1 hPa 0,0 l/m 0,1 km/h (0 Bft) W 271 0 min 0,000 mm 0 W/m 11,8 C 13,4 C 3,2 km/h (1 Bft) 100 %
05.10.2014 19:00 13,3 C 13,3 C 13,4 C 90 % 1015,0 hPa 0,0 l/m 0,0 km/h (0 Bft) W 271 0 min 0,000 mm 0 W/m 11,7 C 13,3 C 1,6 km/h (1 Bft) 100 %
05.10.2014 19:10 13,2 C 13,2 C 13,3 C 90 % 1015,0 hPa 0,0 l/m 0,0 km/h (0 Bft) W 271 0 min 0,000 mm 0 W/m 11,6 C 13,2 C 1,6 km/h (1 Bft) 100 %
05.10.2014 19:20 13,2 C 13,1 C 13,2 C 90 % 1015,0 hPa 0,0 l/m 0,3 km/h (0 Bft) N-NW 337 0 min 0,000 mm 0 W/m 11,6 C 13,2 C 4,8 km/h (1 Bft) 99 %
05.10.2014 19:30 13,1 C 13,0 C 13,2 C 90 % 1015,0 hPa 0,0 l/m 0,5 km/h (0 Bft) SO 126 0 min 0,000 mm 0 W/m 11,5 C 13,1 C 6,4 km/h (2 Bft) 100 %
05.10.2014 19:40 12,9 C 12,9 C 13,1 C 90 % 1015,0 hPa 0,0 l/m 0,6 km/h (0 Bft) NO 44 0 min 0,000 mm 0 W/m 11,3 C 12,9 C 4,8 km/h (1 Bft) 100 %
05.10.2014 19:50 12,8 C 12,8 C 12,9 C 90 % 1015,1 hPa 0,0 l/m 0,3 km/h (0 Bft) N-NW 341 0 min 0,000 mm 0 W/m 11,2 C 12,8 C 6,4 km/h (2 Bft) 100 %
05.10.2014 20:00 12,8 C 12,8 C 12,8 C 90 % 1015,1 hPa 0,0 l/m 0,4 km/h (0 Bft) SO 124 0 min 0,000 mm 0 W/m 11,2 C 12,8 C 4,8 km/h (1 Bft) 100 %
05.10.2014 20:10 12,7 C 12,7 C 12,8 C 90 % 1015,2 hPa 0,0 l/m 0,5 km/h (0 Bft) S-SO 167 0 min 0,000 mm 0 W/m 11,1 C 12,7 C 4,8 km/h (1 Bft) 100 %
05.10.2014 20:20 12,6 C 12,6 C 12,7 C 90 % 1015,2 hPa 0,0 l/m 0,0 km/h (0 Bft) O-SO 119 0 min 0,000 mm 0 W/m 11,0 C 12,6 C 1,6 km/h (1 Bft) 100 %
05.10.2014 20:30 12,6 C 12,6 C 12,6 C 90 % 1015,1 hPa 0,0 l/m 0,2 km/h (0 Bft) N-NO 33 0 min 0,000 mm 0 W/m 11,0 C 12,6 C 4,8 km/h (1 Bft) 100 %
05.10.2014 20:40 12,5 C 12,5 C 12,6 C 90 % 1015,2 hPa 0,0 l/m 0,0 km/h (0 Bft) O-SO 112 0 min 0,000 mm 0 W/m 10,9 C 12,5 C 1,6 km/h (1 Bft) 100 %
05.10.2014 20:50 12,5 C 12,4 C 12,5 C 90 % 1015,1 hPa 0,0 l/m 0,1 km/h (0 Bft) N 5 0 min 0,000 mm 0 W/m 10,9 C 12,5 C 3,2 km/h (1 Bft) 100 %
05.10.2014 21:00 12,4 C 12,4 C 12,5 C 90 % 1015,1 hPa 0,0 l/m 0,4 km/h (0 Bft) N-NO 15 0 min 0,000 mm 0 W/m 10,8 C 12,4 C 6,4 km/h (2 Bft) 100 %
05.10.2014 21:10 12,4 C 12,4 C 12,4 C 90 % 1015,2 hPa 0,0 l/m 0,0 km/h (0 Bft) N 360 0 min 0,000 mm 0 W/m 10,8 C 12,4 C 3,2 km/h (1 Bft) 100 %
05.10.2014 21:20 12,4 C 12,4 C 12,4 C 90 % 1015,1 hPa 0,0 l/m 0,0 km/h (0 Bft) O 90 0 min 0,000 mm 0 W/m 10,8 C 12,4 C 4,8 km/h (1 Bft) 100 %
05.10.2014 21:30 12,4 C 12,4 C 12,4 C 90 % 1015,2 hPa 0,0 l/m 0,0 km/h (0 Bft) NO 45 0 min 0,000 mm 0 W/m 10,8 C 12,4 C 3,2 km/h (1 Bft) 100 %
05.10.2014 21:40 12,4 C 12,3 C 12,4 C 90 % 1015,2 hPa 0,0 l/m 0,0 km/h (0 Bft) O-SO 112 0 min 0,000 mm 0 W/m 10,8 C 12,4 C 3,2 km/h (1 Bft) 100 %
05.10.2014 21:50 12,4 C 12,3 C 12,4 C 90 % 1015,3 hPa 0,0 l/m 0,0 km/h (0 Bft) O-SO 112 0 min 0,000 mm 0 W/m 10,8 C 12,4 C 6,4 km/h (2 Bft) 100 %
05.10.2014 22:00 12,4 C 12,4 C 12,4 C 90 % 1015,3 hPa 0,0 l/m 0,0 km/h (0 Bft) O-SO 112 0 min 0,000 mm 0 W/m 10,8 C 12,4 C 1,6 km/h (1 Bft) 100 %
05.10.2014 22:10 12,4 C 12,4 C 12,4 C 90 % 1015,3 hPa 0,0 l/m 0,0 km/h (0 Bft) O-SO 112 0 min 0,000 mm 0 W/m 10,8 C 12,4 C 3,2 km/h (1 Bft) 100 %
05.10.2014 22:20 12,4 C 12,4 C 12,4 C 90 % 1015,4 hPa 0,0 l/m 0,0 km/h (0 Bft) SO 135 0 min 0,000 mm 0 W/m 10,8 C 12,4 C 4,8 km/h (1 Bft) 99 %
05.10.2014 22:30 12,4 C 12,4 C 12,4 C 90 % 1015,4 hPa 0,0 l/m 3,2 km/h (1 Bft) O-SO 112 0 min 0,000 mm 0 W/m 10,8 C 12,4 C 9,7 km/h (2 Bft) 89 %
05.10.2014 22:40 12,5 C 12,4 C 12,5 C 90 % 1015,3 hPa 0,0 l/m 0,0 km/h (0 Bft) O-SO 112 0 min 0,000 mm 0 W/m 10,9 C 12,5 C 8,0 km/h (2 Bft) 100 %
05.10.2014 22:50 12,5 C 12,5 C 12,6 C 90 % 1015,2 hPa 0,0 l/m 0,0 km/h (0 Bft) N 0 0 min 0,000 mm 0 W/m 10,9 C 12,5 C 0,0 km/h (0 Bft) 100 %
05.10.2014 23:00 12,5 C 12,5 C 12,5 C 90 % 1015,2 hPa 0,0 l/m 0,0 km/h (0 Bft) N 0 0 min 0,000 mm 0 W/m 10,9 C 12,5 C 0,0 km/h (0 Bft) 100 %
05.10.2014 23:10 12,4 C 12,4 C 12,5 C 90 % 1015,2 hPa 0,0 l/m 0,0 km/h (0 Bft) O-NO 67 0 min 0,000 mm 0 W/m 10,8 C 12,4 C 3,2 km/h (1 Bft) 100 %
05.10.2014 23:20 12,2 C 12,2 C 12,4 C 90 % 1015,2 hPa 0,0 l/m 0,0 km/h (0 Bft) O-NO 67 0 min 0,000 mm 0 W/m 10,6 C 12,2 C 1,6 km/h (1 Bft) 100 %
05.10.2014 23:30 11,9 C 11,9 C 12,2 C 90 % 1015,2 hPa 0,0 l/m 0,0 km/h (0 Bft) O-NO 67 0 min 0,000 mm 0 W/m 10,3 C 11,9 C 1,6 km/h (1 Bft) 100 %
05.10.2014 23:40 11,7 C 11,7 C 11,9 C 90 % 1015,1 hPa 0,0 l/m 0,0 km/h (0 Bft) N 0 0 min 0,000 mm 0 W/m 10,1 C 11,7 C 0,0 km/h (0 Bft) 100 %
05.10.2014 23:50 11,5 C 11,5 C 11,7 C 90 % 1015,2 hPa 0,0 l/m 0,0 km/h (0 Bft) O-NO 67 0 min 0,000 mm 0 W/m 9,9 C 11,5 C 1,6 km/h (1 Bft) 100 %
_ Min-Zeit 04:50 04:50 04:40 15:50 19:00 - 00:00 - - - - - 05:00 05:00 02:10 04:10
Minimum _ 6,9 C 6,9 C 7,0 C 89 % 1015,0 hPa - 0,0 km/h (0 Bft) - - - - - 5,5 C 6,9 C 0,0 km/h (0 Bft) 86 %
_ Max-Zeit 16:40 17:00 16:40 00:10 10:40 00:00 22:30 - - 11:30 14:00 12:10 16:30 16:50 22:30 03:30
Maximum _ 14,0 C 14,0 C 14,0 C 94 % 1016,6 hPa 0,0 l/m 3,2 km/h
O-SO (1 Bft)
- - 10 min 0,077 mm 188 W/m 12,3 C 14,0 C 9,7 km/h
O (2 Bft)
100 %
Durchschnitt _ 10,6 C 10,5 C 10,6 C 90 % 1015,7 hPa #0,0 l/m 0,1 km/h (0 Bft) N-NO - #2:50 h #0,559 mm 104 W/m 9,0 C 10,6 C 2,6 km/h (1 Bft) 99 %
PRIVATE WETTERSTATION BILLIGHEIM-ALLFELD - www.neckar-odenwald-wetter.de - Holger Sonntag